Weather reports worldwide

Advertisment
Ryhill, United Kingdom (99162): temperature & dewpoint: 28.05.2020 09:00:00 - 03.06.2020 09:00:00 (BST)Ryhill, United Kingdom (99162): precipitation: 28.05.2020 09:00:00 - 03.06.2020 09:00:00 (BST)
Date & Time tt [°C] td [°C] rr [mm]
03.06.2020 09:00:00 11,9 10,9 0,8
03.06.2020 08:00:00 11,9 11,3 1,6
03.06.2020 07:00:00 11,5 10,5 0,8
03.06.2020 06:00:00 11,9 10,3 0,6
03.06.2020 05:00:00 12,5 10,3 0,0
03.06.2020 04:00:00 12,9 11,4 0,6
03.06.2020 03:00:00 13,3 10,9 0,2
03.06.2020 02:00:00 14,2 9,2 0,0
03.06.2020 01:00:00 14,1 9,8 0,2
03.06.2020 00:00:00 14,8 8,6 0,0
02.06.2020 23:00:00 16,0 7,2 0,0
02.06.2020 22:00:00 16,8 7,6 0,0
02.06.2020 21:00:00 18,1 7,9 0,0
02.06.2020 20:00:00 20,6 6,7 0,0
02.06.2020 19:00:00 22,4 3,5 0,0
02.06.2020 18:00:00 22,6 4,3 0,0
02.06.2020 17:00:00 23,4 2,0 0,0
02.06.2020 16:00:00 23,6 1,1 0,0
02.06.2020 15:00:00 22,1 3,0 0,0
02.06.2020 14:00:00 21,9 4,0 0,0
02.06.2020 13:00:00 20,9 3,2 0,0
02.06.2020 12:00:00 20,1 6,2 0,0
02.06.2020 11:00:00 18,1 5,6 0,0
02.06.2020 10:00:00 - - -
02.06.2020 09:00:00 - - -
02.06.2020 08:00:00 13,1 8,0 0,0
02.06.2020 07:00:00 10,9 8,1 0,0
02.06.2020 06:00:00 9,0 7,1 0,0
02.06.2020 05:00:00 8,4 6,8 0,0
02.06.2020 04:00:00 8,4 6,6 0,0
02.06.2020 03:00:00 9,2 6,7 0,0
02.06.2020 02:00:00 10,2 7,5 0,0
02.06.2020 01:00:00 10,2 7,2 0,0
02.06.2020 00:00:00 11,1 6,6 0,0
01.06.2020 23:00:00 12,0 6,8 0,0
01.06.2020 22:00:00 12,8 5,0 0,0
01.06.2020 21:00:00 15,6 5,7 0,0
01.06.2020 20:00:00 18,0 5,9 0,0
01.06.2020 19:00:00 19,7 8,2 0,0
01.06.2020 18:00:00 21,0 8,9 0,0
01.06.2020 17:00:00 21,5 9,2 0,0
01.06.2020 16:00:00 22,3 8,5 0,0
01.06.2020 15:00:00 21,3 7,8 0,0
01.06.2020 14:00:00 22,4 7,7 0,0
01.06.2020 13:00:00 21,6 7,9 0,0
01.06.2020 12:00:00 20,7 8,6 0,0
01.06.2020 11:00:00 19,8 9,8 0,0
01.06.2020 10:00:00 18,0 9,0 0,0
01.06.2020 09:00:00 16,9 9,0 0,0
01.06.2020 08:00:00 13,7 8,0 0,0
01.06.2020 07:00:00 11,1 8,5 0,0
01.06.2020 06:00:00 9,0 7,9 0,0
01.06.2020 05:00:00 8,2 7,3 0,0
01.06.2020 04:00:00 8,5 7,1 0,0
01.06.2020 03:00:00 9,9 7,8 0,0
01.06.2020 02:00:00 9,3 6,8 0,0
01.06.2020 01:00:00 9,8 6,2 0,0
01.06.2020 00:00:00 11,3 5,9 0,0
31.05.2020 23:00:00 12,9 5,7 0,0
31.05.2020 22:00:00 14,7 5,5 0,0
31.05.2020 21:00:00 16,7 5,3 0,0
31.05.2020 20:00:00 18,8 5,2 0,0
31.05.2020 19:00:00 20,5 5,5 0,0
31.05.2020 18:00:00 21,7 6,2 0,0
31.05.2020 17:00:00 22,1 6,0 0,0
31.05.2020 16:00:00 23,3 7,6 0,0
31.05.2020 15:00:00 22,4 8,4 0,0
31.05.2020 14:00:00 21,3 9,1 0,0
31.05.2020 13:00:00 20,7 8,8 0,0
31.05.2020 12:00:00 20,2 10,4 0,0
31.05.2020 11:00:00 17,6 8,0 0,0
31.05.2020 10:00:00 15,1 8,4 0,0
31.05.2020 09:00:00 14,0 8,9 0,0
31.05.2020 08:00:00 12,5 10,0 0,0
31.05.2020 07:00:00 9,8 9,3 0,0
31.05.2020 06:00:00 7,8 7,6 0,0
31.05.2020 05:00:00 7,5 7,1 0,0
31.05.2020 04:00:00 7,9 7,6 0,0
31.05.2020 03:00:00 8,6 8,2 0,0
31.05.2020 02:00:00 9,0 8,3 0,0
31.05.2020 01:00:00 9,7 8,7 0,0
31.05.2020 00:00:00 9,9 8,6 0,0
30.05.2020 23:00:00 11,2 9,3 0,0
30.05.2020 22:00:00 12,8 9,6 0,0
30.05.2020 21:00:00 14,7 9,6 0,0
30.05.2020 20:00:00 17,2 7,5 0,0
30.05.2020 19:00:00 18,9 8,2 0,0
30.05.2020 18:00:00 20,1 9,4 0,0
30.05.2020 17:00:00 20,4 9,0 0,0
30.05.2020 16:00:00 20,4 9,3 0,0
30.05.2020 15:00:00 20,2 8,6 0,0
30.05.2020 14:00:00 20,3 9,1 0,0
30.05.2020 13:00:00 19,7 9,5 0,0
30.05.2020 12:00:00 18,7 8,9 0,0
30.05.2020 11:00:00 17,3 8,5 0,0
30.05.2020 10:00:00 16,1 9,6 0,0
30.05.2020 09:00:00 14,0 9,5 0,0
30.05.2020 08:00:00 11,3 9,2 0,0
30.05.2020 07:00:00 10,0 9,0 0,0
30.05.2020 06:00:00 8,6 8,1 0,0
30.05.2020 05:00:00 7,4 6,7 0,0
30.05.2020 04:00:00 7,4 6,3 0,0
30.05.2020 03:00:00 7,7 5,8 0,0
30.05.2020 02:00:00 8,6 5,9 0,0
30.05.2020 01:00:00 9,4 5,9 0,0
30.05.2020 00:00:00 10,7 5,3 0,0
29.05.2020 23:00:00 12,5 4,9 0,0
29.05.2020 22:00:00 14,2 4,4 0,0
29.05.2020 21:00:00 16,6 4,9 0,0
29.05.2020 20:00:00 18,3 5,7 0,0
29.05.2020 19:00:00 20,2 6,9 0,0
29.05.2020 18:00:00 21,5 7,3 0,0
29.05.2020 17:00:00 22,3 7,8 0,0
29.05.2020 16:00:00 22,5 8,4 0,0
29.05.2020 15:00:00 22,8 8,6 0,0
29.05.2020 14:00:00 21,6 5,6 0,0
29.05.2020 13:00:00 21,2 5,0 0,0
29.05.2020 12:00:00 20,7 5,0 0,0
29.05.2020 11:00:00 19,2 4,3 0,0
29.05.2020 10:00:00 18,1 4,6 0,0
29.05.2020 09:00:00 16,3 4,7 0,0
29.05.2020 08:00:00 14,7 5,3 0,0
29.05.2020 07:00:00 13,0 6,5 0,0
29.05.2020 06:00:00 9,8 7,2 0,0
29.05.2020 05:00:00 8,6 6,4 0,0
29.05.2020 04:00:00 9,0 6,6 0,0
29.05.2020 03:00:00 10,6 7,4 0,0
29.05.2020 02:00:00 10,3 7,1 0,0
29.05.2020 01:00:00 10,9 7,8 0,0
29.05.2020 00:00:00 12,6 8,0 0,0
28.05.2020 23:00:00 14,3 8,0 0,0
28.05.2020 22:00:00 16,8 8,8 0,0
28.05.2020 21:00:00 18,9 5,6 0,0
28.05.2020 20:00:00 20,9 6,1 0,0
28.05.2020 19:00:00 22,1 6,8 0,0
28.05.2020 18:00:00 22,4 7,4 0,0
28.05.2020 17:00:00 22,7 8,2 0,0
28.05.2020 16:00:00 22,5 8,1 0,0
28.05.2020 15:00:00 21,9 8,2 0,0
28.05.2020 14:00:00 20,8 7,3 0,0
28.05.2020 13:00:00 20,2 8,3 0,0
28.05.2020 12:00:00 18,4 7,8 0,0
28.05.2020 11:00:00 17,5 9,6 0,0
28.05.2020 10:00:00 15,2 9,4 0,0
28.05.2020 09:00:00 13,1 9,4 0,0

tt = temperature
td = dewpoint
rr = precipitation

Next stations